Tracking 30415 objects as of 16-May-2025
HD Live streaming from Space Station
objects crossing your sky now

NSAT 110

Track NSAT 110 now!
NSAT 110 is classified as:


NORAD ID: 26559
Int'l Code: 2000-060A
Perigee: 36,072.7 km
Apogee: 36,130.2 km
Inclination: 5.8 °
Period: 1,451.8 minutes
Semi major axis: 42472 km
RCS: 12.5892 m2 (large)
Launch date: October 6, 2000
Source: Japan (JPN)
Launch site: FRENCH GUIANA (FRGUI)

24 Ku-band; voice and video communications to Japan.
Your satellite tracking list
Your tracking list is empty




NASA's NSSDC Master Catalog

Two Line Element Set (TLE):
1 26559U 00060A   25135.09523713 -.00000091  00000-0  00000-0 0  9990
2 26559   5.7813  74.9172 0006773 358.9430 203.4574  0.99184157 89879
Source of the keplerian elements: AFSPC